Weather History for Hyannis, MA

Change the Weather History Date:

Sunday, February 3, 2013

  Actual Average Record
Temperature  
Mean Temperature 28 °F -  
Max Temperature 32 °F 40 °F 57 °F (1999)
Min Temperature 24 °F 23 °F 0 °F (1961)
Degree Days  
Heating Degree Days 37    
Moisture  
Dew Point 25 °F    
Average Humidity 87    
Maximum Humidity 100    
Minimum Humidity 78    
Precipitation  
Precipitation 0.01 in - - ()
Sea Level Pressure  
Sea Level Pressure 29.83 in    
Wind  
Wind Speed 6 mph (NW)    
Max Wind Speed 16 mph    
Max Gust Speed 26 mph    
Visibility 6 miles    
Events Snow    
Averages and records for this station are not official NWS values.
T = Trace of Precipitation, MM = Missing Value Source: NWS Daily Summary

Daily Weather History Graph

Daily Weather History Graph

Search for Another Location

Airport:

Trip Planner

Search our weather history database for the weather conditions in past years. The results will help you decide how hot, cold, wet, or windy it might be!

Date:

Astronomy

Feb. 03, 2013 Rise Set
Actual Time 6:50 AM EST 4:59 PM EST
Civil Twilight 6:21 AM EST 5:28 PM EST
Nautical Twilight 5:48 AM EST 6:02 PM EST
Astronomical Twilight 5:16 AM EST 6:34 PM EST
Moon 12:14 AM EST (2/3) 10:34 AM EST (2/3)
Length of Visible Light 11h 07m
Length of Day
10h 08m
Waning Gibbous, 49% of the Moon is Illuminated
Feb 3
Waning Gibbous
Feb 10
New
Feb 17
First Quarter
Feb 25
Full
Mar 4
Last Quarter

Hourly Weather History & Observations

Time (EST) Temp. Windchill Dew Point Humidity Pressure Visibility Wind Dir Wind Speed Gust Speed Precip Events Conditions
12:16 AM 28.4 °F 24.6 °F 24.8 °F 86% 30.04 in 3.0 mi NW 3.5 mph - 0.01 in Snow Light Snow
12:30 AM 26.6 °F 20.0 °F 24.8 °F 93% 30.03 in 2.0 mi NNW 5.8 mph - 0.01 in Snow Light Snow
12:52 AM 26.6 °F 19.1 °F 24.8 °F 93% 30.02 in 2.5 mi NW 6.9 mph - 0.01 in Snow Light Snow
12:56 AM 27.0 °F 19.5 °F 24.1 °F 89% 30.03 in 2.5 mi NW 6.9 mph - 0.01 in Snow Light Snow
1:12 AM 26.6 °F 21.2 °F 24.8 °F 93% 30.02 in 4.0 mi NW 4.6 mph - 0.00 in Snow Light Snow
1:25 AM 26.6 °F 20.0 °F 24.8 °F 93% 30.01 in 4.0 mi WNW 5.8 mph - 0.00 in Snow Light Snow
1:56 AM 26.1 °F 19.4 °F 23.0 °F 88% 30.02 in 2.0 mi NW 5.8 mph - 0.00 in Snow Light Snow
2:40 AM 24.8 °F 20.5 °F 21.2 °F 86% 30.00 in 3.0 mi NNW 3.5 mph - 0.00 in Snow Light Snow
3:56 AM 26.1 °F - 19.9 °F 78% 29.99 in 10.0 mi Calm Calm - 0.00 in   Overcast
4:56 AM 25.0 °F 20.7 °F 19.9 °F 81% 29.97 in 3.0 mi NNW 3.5 mph - 0.00 in Snow Light Snow
5:18 AM 24.8 °F - 21.2 °F 86% 29.95 in 2.0 mi Calm Calm - 0.00 in Snow Light Snow
5:44 AM 24.8 °F - 21.2 °F 86% 29.94 in 3.0 mi Calm Calm - 0.00 in Snow Light Snow
5:49 AM 24.8 °F - 23.0 °F 93% 29.93 in 2.5 mi Calm Calm - 0.00 in Snow Light Snow
6:11 AM 24.8 °F - 23.0 °F 93% 29.93 in 3.0 mi Calm Calm - 0.00 in Snow Light Snow
6:39 AM 24.8 °F - 23.0 °F 93% 29.92 in 5.0 mi Calm Calm - 0.00 in   Overcast
6:56 AM 26.1 °F - 23.0 °F 88% 29.93 in 10.0 mi Calm Calm - 0.00 in   Overcast
7:04 AM 24.8 °F - 24.8 °F 100% 29.93 in 10.0 mi Calm Calm - N/A   Overcast
7:23 AM 26.6 °F - 24.8 °F 93% 29.94 in 9.0 mi Calm Calm - N/A   Overcast
7:56 AM 25.0 °F 19.3 °F 21.9 °F 88% 29.95 in 8.0 mi WSW 4.6 mph - N/A   Overcast
8:31 AM 24.8 °F 19.1 °F 23.0 °F 93% 29.94 in 10.0 mi West 4.6 mph - N/A   Overcast
8:56 AM 25.0 °F 19.3 °F 23.0 °F 92% 29.94 in 10.0 mi West 4.6 mph - N/A   Overcast
9:56 AM 27.0 °F 19.5 °F 23.0 °F 85% 29.90 in 10.0 mi WNW 6.9 mph - N/A   Overcast
10:56 AM 30.0 °F 22.4 °F 25.0 °F 82% 29.86 in 10.0 mi NW 8.1 mph - N/A   Mostly Cloudy
11:56 AM 30.9 °F 23.5 °F 25.0 °F 79% 29.81 in 10.0 mi NNW 8.1 mph - N/A   Scattered Clouds
12:09 PM 32.0 °F 22.5 °F 26.6 °F 80% 29.81 in 10.0 mi North 12.7 mph - N/A   Mostly Cloudy
12:27 PM 30.2 °F 21.9 °F 24.8 °F 80% 29.80 in 10.0 mi North 9.2 mph - N/A   Mostly Cloudy
12:35 PM 30.2 °F 21.9 °F 24.8 °F 80% 29.80 in 10.0 mi NNW 9.2 mph - N/A   Mostly Cloudy
12:56 PM 30.9 °F 21.2 °F 25.0 °F 79% 29.80 in 10.0 mi NNW 12.7 mph 17.3 mph N/A   Overcast
1:56 PM 30.0 °F 20.5 °F 25.0 °F 82% 29.76 in 10.0 mi NW 11.5 mph 18.4 mph N/A   Overcast
2:07 PM 30.2 °F 21.9 °F 24.8 °F 80% 29.76 in 10.0 mi NW 9.2 mph - N/A   Overcast
2:56 PM 30.9 °F 22.2 °F 25.0 °F 79% 29.74 in 10.0 mi North 10.4 mph - N/A   Mostly Cloudy
3:56 PM 30.0 °F 21.7 °F 24.1 °F 79% 29.72 in 10.0 mi NNW 9.2 mph 17.3 mph N/A   Overcast
4:56 PM 30.0 °F 19.5 °F 26.1 °F 85% 29.68 in 10.0 mi NNW 13.8 mph 24.2 mph N/A   Overcast
5:46 PM 30.2 °F 20.8 °F 26.6 °F 86% 29.68 in 9.0 mi NW 11.5 mph 25.3 mph 0.00 in   Overcast
5:56 PM 32.0 °F 24.2 °F 28.0 °F 85% 29.69 in 10.0 mi North 9.2 mph 17.3 mph 0.00 in   Mostly Cloudy
5:59 PM 32.0 °F 24.8 °F 28.4 °F 87% 29.68 in 10.0 mi North 8.1 mph - N/A   Mostly Cloudy
6:36 PM 32.0 °F 21.2 °F 28.4 °F 87% 29.69 in 2.5 mi North 16.1 mph 26.5 mph 0.00 in Snow Light Snow
6:43 PM 32.0 °F 21.6 °F 28.4 °F 87% 29.67 in 3.0 mi North 15.0 mph 25.3 mph 0.00 in Snow Light Snow
6:52 PM 32.0 °F 21.6 °F 28.4 °F 87% 29.69 in 3.0 mi NNW 15.0 mph 23.0 mph 0.00 in Snow Light Snow
6:56 PM 32.0 °F 22.5 °F 30.0 °F 92% 29.69 in 3.0 mi NNW 12.7 mph 23.0 mph 0.00 in Snow Light Snow
7:33 PM 30.2 °F 19.3 °F 28.4 °F 93% 29.68 in 3.0 mi NNW 15.0 mph 19.6 mph 0.00 in Snow Light Snow
7:40 PM 30.2 °F 19.8 °F 28.4 °F 93% 29.68 in 3.0 mi NNW 13.8 mph 19.6 mph 0.00 in Snow Light Snow
7:56 PM 30.0 °F 18.7 °F 28.0 °F 92% 29.68 in 1.2 mi NNW 16.1 mph 25.3 mph 0.00 in Snow Light Snow
8:54 PM 30.2 °F 19.8 °F 26.6 °F 86% 29.65 in 2.0 mi NNW 13.8 mph 23.0 mph 0.00 in Snow Light Snow
8:56 PM 30.0 °F 19.5 °F 27.0 °F 88% 29.66 in 2.5 mi NNW 13.8 mph 23.0 mph 0.00 in Snow Light Snow
9:56 PM 28.9 °F 18.6 °F 26.1 °F 89% 29.65 in 2.0 mi NNW 12.7 mph 24.2 mph 0.00 in Snow Light Snow
10:03 PM 28.4 °F 18.0 °F 26.6 °F 93% 29.65 in 7.0 mi NW 12.7 mph 23.0 mph N/A   Overcast
10:56 PM 28.0 °F 17.5 °F 24.1 °F 85% 29.66 in 10.0 mi NW 12.7 mph 21.9 mph N/A   Overcast
11:17 PM 28.4 °F 17.0 °F 23.0 °F 80% 29.66 in 8.0 mi NW 15.0 mph 24.2 mph 0.00 in Snow Light Snow
11:56 PM 27.0 °F 14.7 °F 21.9 °F 81% 29.67 in 4.0 mi NW 16.1 mph 23.0 mph 0.00 in Snow Light Snow